TimeCST,TemperatureF,Dew PointF,Humidity,Sea Level PressureIn,VisibilityMPH,Wind Direction,Wind SpeedMPH,Gust SpeedMPH,PrecipitationIn,Events,Conditions,WindDirDegrees,DateUTC
12:15 AM,8.6,3.2,79,30.19,10.0,North,5.8,-,N/A,,Clear,360,2012-01-21 06:15:00
12:35 AM,8.6,3.2,79,30.19,10.0,North,6.9,-,N/A,,Clear,360,2012-01-21 06:35:00
12:55 AM,8.6,3.2,79,30.19,10.0,NNW,3.5,-,N/A,,Clear,340,2012-01-21 06:55:00
1:15 AM,6.8,1.4,79,30.20,10.0,NNW,8.1,-,N/A,,Clear,330,2012-01-21 07:15:00
1:35 AM,6.8,1.4,79,30.19,10.0,NNW,4.6,-,N/A,,Clear,330,2012-01-21 07:35:00
1:55 AM,5.0,-0.4,78,30.17,10.0,North,3.5,-,N/A,,Clear,350,2012-01-21 07:55:00
2:15 AM,6.8,3.2,85,30.17,10.0,Calm,Calm,-,N/A,,Clear,0,2012-01-21 08:15:00
2:35 AM,5.0,1.4,85,30.17,10.0,NNW,5.8,-,N/A,,Clear,330,2012-01-21 08:35:00
2:55 AM,5.0,1.4,85,30.19,10.0,WNW,6.9,-,N/A,,Mostly Cloudy,300,2012-01-21 08:55:00
3:15 AM,8.6,3.2,79,30.17,10.0,NNW,4.6,-,N/A,,Overcast,330,2012-01-21 09:15:00
3:35 AM,8.6,3.2,79,30.17,10.0,NNW,4.6,-,N/A,,Overcast,330,2012-01-21 09:35:00
3:55 AM,10.4,5.0,79,30.17,10.0,Calm,Calm,-,N/A,,Overcast,0,2012-01-21 09:55:00
4:15 AM,10.4,5.0,79,30.15,10.0,NNE,5.8,-,N/A,,Overcast,20,2012-01-21 10:15:00
4:35 AM,12.2,5.0,73,30.16,10.0,North,6.9,-,N/A,,Overcast,360,2012-01-21 10:35:00
4:55 AM,12.2,5.0,73,30.15,10.0,North,5.8,-,N/A,,Overcast,10,2012-01-21 10:55:00
5:15 AM,12.2,6.8,79,30.15,10.0,NNE,6.9,-,N/A,,Overcast,30,2012-01-21 11:15:00
5:35 AM,12.2,6.8,79,30.15,10.0,NNE,3.5,-,N/A,,Overcast,30,2012-01-21 11:35:00
5:55 AM,12.2,6.8,79,30.14,10.0,NE,3.5,-,N/A,,Overcast,40,2012-01-21 11:55:00
6:15 AM,12.2,6.8,79,30.13,10.0,ENE,4.6,-,N/A,,Overcast,60,2012-01-21 12:15:00
6:35 AM,12.2,6.8,79,30.12,10.0,ENE,3.5,-,N/A,,Overcast,70,2012-01-21 12:35:00
6:55 AM,12.2,6.8,79,30.14,10.0,Calm,Calm,-,N/A,,Overcast,0,2012-01-21 12:55:00
7:15 AM,12.2,6.8,79,30.14,10.0,Calm,Calm,-,N/A,,Overcast,0,2012-01-21 13:15:00
7:35 AM,12.2,6.8,79,30.13,10.0,East,3.5,-,N/A,,Overcast,100,2012-01-21 13:35:00
7:55 AM,12.2,6.8,79,30.13,10.0,Calm,Calm,-,N/A,,Overcast,0,2012-01-21 13:55:00
8:15 AM,12.2,8.6,85,30.13,10.0,ESE,3.5,-,N/A,,Overcast,120,2012-01-21 14:15:00
8:35 AM,12.2,8.6,85,30.12,10.0,ESE,4.6,-,N/A,,Overcast,120,2012-01-21 14:35:00
8:55 AM,14.0,8.6,79,30.13,10.0,ESE,6.9,-,N/A,,Overcast,120,2012-01-21 14:55:00
9:15 AM,14.0,8.6,79,30.12,10.0,SE,6.9,-,N/A,,Overcast,140,2012-01-21 15:15:00
9:35 AM,14.0,8.6,79,30.12,10.0,SE,10.4,-,N/A,,Overcast,140,2012-01-21 15:35:00
9:55 AM,15.8,8.6,73,30.12,10.0,SE,10.4,-,N/A,,Overcast,130,2012-01-21 15:55:00
10:15 AM,15.8,10.4,79,30.11,10.0,SE,11.5,-,N/A,,Overcast,130,2012-01-21 16:15:00
10:35 AM,17.6,10.4,73,30.10,10.0,ESE,9.2,-,N/A,,Overcast,120,2012-01-21 16:35:00
10:55 AM,17.6,10.4,73,30.08,10.0,SE,8.1,-,N/A,,Overcast,140,2012-01-21 16:55:00
11:15 AM,19.4,12.2,74,30.07,10.0,SSE,11.5,-,N/A,,Overcast,150,2012-01-21 17:15:00
11:35 AM,19.4,12.2,74,30.05,10.0,SSE,11.5,-,N/A,,Overcast,150,2012-01-21 17:35:00
11:55 AM,19.4,14.0,80,30.05,10.0,SSE,10.4,-,N/A,,Overcast,160,2012-01-21 17:55:00
12:15 PM,21.2,14.0,74,30.04,10.0,SSE,11.5,17.3,N/A,,Overcast,160,2012-01-21 18:15:00
12:35 PM,21.2,15.8,80,30.02,10.0,South,11.5,-,N/A,,Overcast,170,2012-01-21 18:35:00
12:55 PM,23.0,17.6,80,30.00,10.0,SSE,12.7,-,N/A,,Overcast,150,2012-01-21 18:55:00
1:15 PM,23.0,17.6,80,29.98,10.0,South,16.1,-,N/A,,Overcast,170,2012-01-21 19:15:00
1:35 PM,23.0,17.6,80,29.96,10.0,SSE,15.0,19.6,N/A,,Overcast,160,2012-01-21 19:35:00
1:55 PM,24.8,17.6,74,29.95,10.0,SSE,13.8,19.6,N/A,,Overcast,150,2012-01-21 19:55:00
2:15 PM,26.6,19.4,74,29.93,10.0,South,13.8,19.6,N/A,,Mostly Cloudy,170,2012-01-21 20:15:00
2:35 PM,26.6,19.4,74,29.93,10.0,SSE,12.7,19.6,N/A,,Overcast,160,2012-01-21 20:35:00
2:55 PM,26.6,19.4,74,29.91,10.0,South,15.0,26.5,N/A,,Scattered Clouds,170,2012-01-21 20:55:00
3:15 PM,28.4,19.4,69,29.90,10.0,SSE,13.8,18.4,N/A,,Clear,160,2012-01-21 21:15:00
3:35 PM,28.4,19.4,69,29.88,10.0,SSE,15.0,20.7,N/A,,Clear,150,2012-01-21 21:35:00
3:55 PM,28.4,19.4,69,29.88,10.0,SSE,12.7,17.3,N/A,,Clear,160,2012-01-21 21:55:00
4:15 PM,28.4,19.4,69,29.86,10.0,SSE,13.8,-,N/A,,Clear,150,2012-01-21 22:15:00
4:35 PM,26.6,19.4,74,29.85,10.0,SE,11.5,-,N/A,,Clear,140,2012-01-21 22:35:00
4:55 PM,26.6,19.4,74,29.83,10.0,SE,11.5,16.1,N/A,,Clear,140,2012-01-21 22:55:00
5:15 PM,26.6,19.4,74,29.81,10.0,SE,11.5,-,N/A,,Clear,130,2012-01-21 23:15:00
5:35 PM,26.6,19.4,74,29.79,10.0,SE,13.8,-,N/A,,Clear,140,2012-01-21 23:35:00
5:55 PM,28.4,19.4,69,29.79,10.0,SSE,12.7,17.3,N/A,,Clear,150,2012-01-21 23:55:00
6:15 PM,28.4,19.4,69,29.77,10.0,SE,12.7,18.4,N/A,,Clear,140,2012-01-22 00:15:00
6:35 PM,28.4,19.4,69,29.76,10.0,SE,16.1,20.7,N/A,,Clear,140,2012-01-22 00:35:00
6:55 PM,28.4,19.4,69,29.74,10.0,SSE,18.4,23.0,N/A,,Clear,150,2012-01-22 00:55:00
7:15 PM,28.4,19.4,69,29.74,10.0,SSE,13.8,23.0,N/A,,Clear,150,2012-01-22 01:15:00
7:35 PM,28.4,19.4,69,29.71,10.0,SE,15.0,23.0,N/A,,Clear,140,2012-01-22 01:35:00
7:55 PM,28.4,19.4,69,29.72,10.0,SSE,15.0,28.8,N/A,,Clear,150,2012-01-22 01:55:00
8:15 PM,26.6,19.4,74,29.71,10.0,SSE,18.4,26.5,N/A,,Clear,150,2012-01-22 02:15:00
8:35 PM,26.6,21.2,80,29.70,10.0,SSE,16.1,24.2,N/A,,Clear,150,2012-01-22 02:35:00
8:55 PM,26.6,21.2,80,29.69,10.0,SE,15.0,23.0,N/A,,Clear,140,2012-01-22 02:55:00
9:15 PM,26.6,21.2,80,29.69,10.0,SE,18.4,21.9,N/A,,Clear,140,2012-01-22 03:15:00
9:35 PM,26.6,21.2,80,29.69,10.0,SSE,19.6,25.3,N/A,,Clear,150,2012-01-22 03:35:00
9:55 PM,26.6,21.2,80,29.66,10.0,SSE,19.6,27.6,N/A,,Clear,150,2012-01-22 03:55:00
10:15 PM,26.6,21.2,80,29.65,10.0,SSE,16.1,29.9,N/A,,Clear,150,2012-01-22 04:15:00
10:35 PM,26.6,21.2,80,29.63,10.0,SSE,20.7,27.6,N/A,,Clear,150,2012-01-22 04:35:00
10:55 PM,26.6,21.2,80,29.63,10.0,SSE,17.3,23.0,N/A,,Clear,150,2012-01-22 04:55:00
11:15 PM,26.6,21.2,80,29.61,7.0,SSE,20.7,28.8,N/A,,Clear,150,2012-01-22 05:15:00
11:35 PM,26.6,21.2,80,29.60,7.0,SSE,16.1,27.6,N/A,,Clear,160,2012-01-22 05:35:00
11:55 PM,26.6,23.0,86,29.59,7.0,SSE,16.1,24.2,N/A,,Clear,160,2012-01-22 05:55:00